User: anonymous   Login
Location: Unspecified
(0.0000°N, 0.0000°E)
Time: 16:20:15
(UTC+00:00)
Language:

OV2-5 - Orbit

View from above orbital plane
View from above orbital plane
View from above satellite
View from above satellite

Ground track
Ground track

The orbit data is extracted from the following two-line orbital elements,

1  3428U 68081A   18114.67718334 -.00000144 +00000-0 +00000-0 0  9994
2  3428 005.2733 310.4361 0089044 332.5453 044.4160 01.01560209090841
Epoch (UTC): 24 April 2018 16:15:08
Eccentricity: 0.0089044
inclination: 5.2733°
perigee height: 35056 km
apogee height: 35801 km
right ascension of ascending node: 310.4361°
argument of perigee: 332.5453°
revolutions per day: 1.01560209
mean anomaly at epoch: 44.4160°
orbit number at epoch: 9084

The dashed part of the orbit path shows where the satellite is in the earth's shadow,  

DLR